This demonstration page uses our WeatherBlox Daily Observations layout. Learn more.

Left ArrowRight Arrow

Hourly Observations for February 3, 2016

Temp ( °F °C ) Dew Point ( °F °C ) Humidity (%) Winds ( mph kmh ) Pressure ( in mb ) Visibility ( mi km ) Precip ( " mm )
12:59 am 00:59 Mostly Cloudy 44 6.7 42 5.6 93 93 ESE 5 7 30.22 1024 8 13 0.00 0.00
1:59 am 01:59 Mostly Cloudy 47 8.3 44 6.7 90 90 ESE 5 7 30.21 1023 10 16 0.00 0.00
2:59 am 02:59 Mostly Cloudy 52 11.1 46 7.8 80 80 ESE 13 20 30.17 1022 10 16 0.00 0.00
3:59 am 03:59 Mostly Clear 53 11.7 47 8.3 80 80 SE 9 15 30.16 1021 10 16 0.00 0.00
4:59 am 04:59 Mostly Clear 53 11.7 48 8.9 83 83 SE 10 17 30.14 1021 10 16 0.00 0.00
5:59 am 05:59 Partly Cloudy 55 12.8 50 10 83 83 SE 10 17 30.12 1020 10 16 0.00 0.00
6:59 am 06:59 Mostly Cloudy 58 14.4 53 11.7 84 84 SSE 7 11 30.14 1021 10 16 0.00 0.00
7:59 am 07:59 Mostly Cloudy 60 15.6 55 12.8 84 84 SSE 9 15 30.13 1020 9 14 0.00 0.00
8:59 am 08:59 Mostly Cloudy 64 17.8 58 14.4 81 81 S 7 11 30.12 1020 9 14 0.00 0.00
9:59 am 09:59 Mostly Cloudy 69 20.6 60 15.6 73 73 S 9 15 30.10 1019 10 16 0.00 0.00
10:59 am 10:59 Mostly Cloudy 72 22.2 59 15 64 64 SSW 16 26 30.07 1018 10 16 0.00 0.00
11:59 am 11:59 Mostly Cloudy 76 24.4 58 14.4 54 54 SSW 17 28 30.03 1017 10 16 0.00 0.00
12:59 pm 12:59 Mostly Cloudy 76 24.4 57 13.9 52 52 S 17 28 29.98 1015 10 16 0.00 0.00
1:59 pm 13:59 Mostly Cloudy 74 23.3 58 14.4 57 57 SSW 17 28 29.96 1014 10 16 0.00 0.00
2:59 pm 14:59 Mostly Cloudy 74 23.3 58 14.4 57 57 S 17 28 29.93 1014 10 16 0.00 0.00
3:59 pm 15:59 Cloudy 73 22.8 58 14.4 59 59 S 20 31 29.92 1013 10 16 0.00 0.00
4:59 pm 16:59 Cloudy 72 22.2 58 14.4 61 61 S 15 24 29.93 1014 10 16 0.00 0.00
5:35 pm 17:35 Cloudy with Rain 65 18.3 59 15 81 81 W 17 28 30.03 1017 3 5 0.02 0.51
5:39 pm 17:39 Cloudy with Heavy Rain 63 17.2 59 15 87 87 W 17 28 30.03 1017 2 2 0.10 2.54
5:59 pm 17:59 Cloudy with Rain 62 16.7 60 15.6 93 93 SW 5 7 30.01 1016 2 2 0.35 8.89
6:08 pm 18:08 Cloudy with Thunderstorms 62 16.7 60 15.6 93 93 W 7 11 30.03 1017 2 2 0.07 1.78
6:24 pm 18:24 Cloudy with Strong Thunderstorms 62 16.7 59 15 90 90 W 6 9 30.03 1017 1 1 0.35 8.89
6:59 pm 18:59 Cloudy with Light Rain 62 16.7 60 15.6 93 93 ESE 7 11 30.02 1017 3 5 0.58 14.73
7:31 pm 19:31 Cloudy with Light Rain 62 16.7 60 15.6 93 93 SE 7 11 30.00 1016 10 16 0.02 0.51
7:59 pm 19:59 Cloudy with Light Rain 63 17.2 60 15.6 90 90 SE 10 17 30.00 1016 8 13 0.03 0.76
8:59 pm 20:59 Cloudy with Light Rain 63 17.2 60 15.6 90 90 SSE 9 15 30.01 1016 7 11 0.04 1.02
9:59 pm 21:59 Cloudy with Rain 63 17.2 60 15.6 90 90 S 10 17 30.01 1016 3 5 0.12 3.05
10:59 pm 22:59 Cloudy with Light Rain 63 17.2 60 15.6 90 90 SSE 13 20 29.98 1015 4 6 0.22 5.59
11:59 pm 23:59 Cloudy with Light Rain 63 17.2 61 16.1 93 93 S 13 20 29.97 1015 7 11 0.02 0.51

Powered by AerisWeather